Location: Lugrin
(46.4033°N, 6.6674°E)
Time: 06:57:16
(UTC+00:00)

Cosmos 1626 - Pass Details

Date: 18 September 2020
Orbit: 490 x 495 km, 82.5° (Epoch: 23 October)

Event Time Altitude Azimuth Distance (km) Brightness Sun altitude
Rises 20:13:32 0° 350° (N) 2,588 6.4 -26.1°
Reaches altitude 10° 20:15:39 10° 351° (N) 1,699 5.3 -26.4°
Enters shadow 20:17:30 28° 351° (N) 964 3.9 -26.6°
